Regional Weather Roundup
Issued by NWS

Home | Current Version | Previous Version | Text Only | Print | Product List | Glossary Off
Versions: 1 2 3 4 5 6 7 8 9 10 11 12 13 14 15 16 17 18 19 20 21 22 23 24 25 26 27 28 29 30 31 32 33 34 35 36 37 38 39 40 41 42 43 44 45 46 47 48 49 50

000
ASUS44 KMEG 270000
RWRTN
TENNESSEE HOURLY STATE WEATHER ROUNDUP
NATIONAL WEATHER SERVICE MEMPHIS TN
700 PM CDT THU MAR 26 2015

TNZ002-004-019-021-049-052-054-088>092-270100-
WEST TENNESSEE

CITY           SKY/WX    TMP DP  RH WIND       PRES   REMARKS
MEMPHIS INTL   MOCLDY    48  40  73 N9        30.01R
NWS MEMPHIS      N/A     46 N/A N/A MISG        N/A
JACKSON        CLOUDY    45  39  79 N13       30.00R
DYERSBURG      MOCLDY    45  27  49 N9        30.03R
PARIS          MOCLDY    39  37  93 N7        29.98F WCI  34
LEXINGTON      CLOUDY    45  39  81 N7        29.96R
SAVANNAH       CLOUDY    45  45 100 N8        29.95F
$$

TNZ008-025-027-028-033-062-065-066-270100-
NORTH MIDDLE TENNESSEE

CITY           SKY/WX    TMP DP  RH WIND       PRES   REMARKS
NASHVILLE      CLOUDY    45  42  89 N5        29.97R
CLARKSVILLE    CLOUDY    42  38  85 N15       29.98R
CROSSVILLE     CLOUDY    46  42  86 N14G22    29.87S
$$

TNZ061-075-076-078-094-096-097-270100-
SOUTH MIDDLE TENNESSEE

CITY           SKY/WX    TMP DP  RH WIND       PRES   REMARKS
FAYETTEVILLE   CLOUDY    45  43  93 N18       29.91R
TULLAHOMA      CLOUDY    45  41  87 N14       29.92R
WINCHESTER     CLOUDY    48  46  93 N12       29.90R
COLUMBIA       CLOUDY   N/A N/A N/A N6        29.94R
SHELBYVILLE    CLOUDY    46  45  93 N17       29.94R
$$

TNZ017-018-042-046-047-270100-
NORTHEAST TENNESSEE

CITY           SKY/WX    TMP DP  RH WIND       PRES   REMARKS
TRI CITIES     CLOUDY    62  55  77 NW12      29.72R
ELIZABETHTON   CLOUDY    63  52  67 NW13      29.72R
$$

TNZ012-013-036-069-073-074-270100-
CENTRAL EAST TENNESSEE

CITY           SKY/WX    TMP DP  RH WIND       PRES   REMARKS
KNOXVILLE      LGT RAIN  56  53  90 N20G25    29.77R FOG
OAK RIDGE      RAIN      55  49  80 N9G18     29.82R
$$

TNZ083-085-099-270100-
SOUTHEAST TENNESSEE

CITY           SKY/WX    TMP DP  RH WIND       PRES   REMARKS
CHATTANOOGA    CLOUDY    64  56  75 N14       29.78R
$$

SKY/WX REPORTED AS FAIR MEANS FEW OR NO CLOUDS BELOW
12 THOUSAND FEET.



USA.gov is the U.S. government's official web portal to all federal, state and local government web resources and services.